Location: Daerah Kuala Lumpur
(3.1167°N, 101.6833°E)
Time: 08:54:17
(UTC+00:00)

CZ-4C R/B - Pass Details

Date: 16 November 2024
Orbit: 515 x 1473 km, 63.4° (Epoch: 09 December)

Event Time Altitude Azimuth Distance (km) Brightness Sun altitude
Rises 12:54:39 0° 332° (NNW) 4,382 6.0 -28.5°
Reaches altitude 10° 12:57:28 10° 331° (NNW) 3,485 5.4 -29.2°
Maximum altitude 13:06:19 73° 248° (WSW) 1,529 3.5 -31.2°
Drops below altitude 10° 13:15:16 10° 164° (SSE) 3,518 5.4 -33.3°
Sets 13:18:07 0° 162° (SSE) 4,426 6.0 -34.0°
